Flag for Belgium Weather past 2 weeks in Mechelen, Belgium

Now
54 °F

Drizzle. Partly sunny.


Feels Like: 50 °F
Forecast: 44 / 54 °F
Wind: 13 mph from West

Location: Brussels National Airport

Current Time: Dec 18, 2014 at 11:53:39 AM

Latest Report: Dec 18, 2014 at 11:20 AM


Visibility: 2 mi

Pressure: 29.89 "Hg

Humidity: 88%

Dew point: 50 °F

Location of MechelenLocation

Historic Weather in Mechelen — Graph

°F

Mechelen temperature yesterday

Maximum temperature yesterday: 52 °F (at 4:20 PM)
Minimum temperature yesterday: 39 °F (at 12:20 AM)
Average temperature yesterday: 46 °F

Past Weeks' High & Low Weather Summary

 TemperatureHumidityPressure
High54 °F (Dec 18, 10:20 AM)100% (Dec 6, 5:50 AM)30.36 "Hg (Dec 6, 5:50 AM)
Low28 °F (Dec 3, 4:20 PM)61% (Dec 10, 4:20 PM)29.42 "Hg (Dec 12, 11:50 AM)
Average40 °F85%29.98 "Hg
* Reported Dec 3 10:20 AM — Dec 18 10:20 AM, Mechelen, Weather by CustomWeather, © 2014

Note: Actual official high and low records may vary slightly from our data, if they occured in-between our weather recording intervals... More about our weather records

Advertising

Mechelen weather history for previous 24 hours

 ConditionsComfort  
Time TempWeatherWind HumidityBarometerVisibility
10:20 AM
Dec 18
54 °FDrizzle. Partly sunny.14 mph88%29.89 "Hg2 mi
9:50 AM52 °FDrizzle. Partly sunny.15 mph94%29.89 "Hg1 mi
9:20 AM52 °FDrizzle. Broken clouds.14 mph94%29.86 "Hg2 mi
8:50 AM52 °FDrizzle. Partly sunny.13 mph94%29.86 "Hg1 mi
8:20 AM52 °FPartly cloudy.13 mph94%29.86 "HgN/A
7:50 AM52 °FPartly cloudy.12 mph94%29.86 "HgN/A
7:20 AM52 °FPartly cloudy.13 mph94%29.83 "Hg2 mi
6:50 AM52 °FPassing clouds.12 mph88%29.83 "Hg5 mi
6:20 AM52 °FPassing clouds.13 mph88%29.83 "Hg4 mi
5:50 AM52 °FPartly cloudy.13 mph88%29.83 "HgN/A
5:20 AM52 °FPassing clouds.12 mph94%29.83 "HgN/A
4:20 AM52 °FPassing clouds.14 mph88%29.83 "Hg4 mi
3:50 AM52 °FFog.13 mph88%29.83 "Hg3 mi
3:20 AM52 °FPassing clouds.13 mph88%29.83 "Hg4 mi
2:50 AM52 °FPassing clouds.10 mph88%29.83 "Hg6 mi
2:20 AM50 °FPartly cloudy.9 mph94%29.83 "Hg5 mi
1:50 AM50 °FPassing clouds.9 mph94%29.83 "Hg1 mi
1:20 AM50 °FPassing clouds.9 mph94%29.83 "Hg2 mi
12:50 AM50 °FPassing clouds.9 mph94%29.83 "HgN/A
12:20 AM50 °FPassing clouds.10 mph94%29.83 "HgN/A
11:50 PM
Dec 17
50 °FPassing clouds.10 mph94%29.83 "HgN/A
11:20 PM50 °FPassing clouds.12 mph94%29.83 "HgN/A
10:50 PM50 °FPassing clouds.9 mph94%29.83 "HgN/A
10:20 PM50 °FPartly cloudy.10 mph94%29.83 "HgN/A
9:50 PM52 °FPassing clouds.10 mph88%29.83 "HgN/A
9:20 PM52 °FPassing clouds.12 mph88%29.83 "HgN/A
8:50 PM52 °FPassing clouds.10 mph88%29.83 "HgN/A
8:20 PM52 °FPassing clouds.9 mph88%29.80 "HgN/A
7:50 PM52 °FPassing clouds.10 mph88%29.80 "HgN/A
7:20 PM50 °FPassing clouds.8 mph82%29.77 "HgN/A
6:50 PM52 °FPassing clouds.9 mph94%29.77 "HgN/A
6:20 PM52 °FPartly cloudy.9 mph82%29.77 "HgN/A
5:50 PM52 °FPassing clouds.8 mph82%29.74 "HgN/A
5:20 PM52 °FPartly cloudy.8 mph88%29.74 "HgN/A
4:50 PM52 °FPartly cloudy.7 mph82%29.71 "HgN/A
4:20 PM52 °FPartly sunny.9 mph77%29.71 "HgN/A
3:50 PM50 °FBroken clouds.10 mph100%29.71 "HgN/A
3:20 PM50 °FBroken clouds.10 mph94%29.68 "HgN/A
2:50 PM50 °FPartly sunny.12 mph82%29.68 "Hg6 mi
2:20 PM50 °FBroken clouds.10 mph94%29.68 "HgN/A
1:50 PM48 °FBroken clouds.12 mph94%29.65 "Hg5 mi
1:20 PM48 °FBroken clouds.13 mph87%29.65 "HgN/A
12:50 PM48 °FBroken clouds.13 mph87%29.65 "HgN/A
12:20 PM46 °FDrizzle. Broken clouds.14 mph93%29.65 "Hg2 mi
11:50 AM46 °FDrizzle. Broken clouds.14 mph87%29.65 "Hg2 mi
11:20 AM46 °FDrizzle. Partly sunny.15 mph87%29.65 "Hg2 mi
Weather by CustomWeather, © 2014

See weather overviewHow to use our weather pages